Regional Weather Roundup
Issued by NWS

Home | Current Version | Previous Version | Text Only | Print | Product List | Glossary On
Versions: 1 2 3 4 5 6 7 8 9 10 11 12 13 14 15 16 17 18 19 20 21 22 23 24 25 26 27 28 29 30 31 32 33 34 35 36 37 38 39 40 41 42 43 44 45 46 47 48 49 50
723
ASUS44 KLIX 071711
RWRLA
LOUISIANA WEATHER ROUNDUP
NATIONAL WEATHER SERVICE NEW ORLEANS LA
1100 AM CST SUN FEB 07 2016

NOTE: "FAIR" INDICATES FEW OR NO CLOUDS BELOW 12,000 FEET WITH NO
      SIGNIFICANT WEATHER AND/OR OBSTRUCTIONS TO VISIBILITY.
      SKY/WX - SKY CONDITION AND SIGNIFICANT WEATHER.
      TMP - AIR TEMPERATURE.    DP   - DEWPOINT TEMPERATURE.
      RH  - RELATIVE HUMIDITY.  PRES - PRESSURE.
      HX  - HEAT INDEX.         WCI  - WIND CHILL INDEX.

*  THESE STATIONS ARE NOT NWS OR FAA STATIONS AND ARE NOT UNDER
   NWS QUALITY CONTROL.

LAZ040-048-061>063-065-066-069-071800-
SOUTHEAST LOUISIANA

CITY           SKY/WX    TMP DP  RH WIND       PRES   REMARKS
N.O. AUDUBON   NOT AVBL
N.O. INTL ARPT MOSUNNY   56  26  31 N6        30.31S
N.O. LAKEFRONT SUNNY     52  30  43 N3        30.32S
N.O. DOWNTOWN* FAIR      55  21  26 MISG      30.31F
RESERVE*       FAIR      58  23  26 NE7       30.31F
SLIDELL        SUNNY     56  25  30 NE9       30.30F
BATON ROUGE    SUNNY     55  24  30 CALM      30.29F
BOOTHVILLE     SUNNY     53  34  48 N7        30.30F
BELLE CHASSE   MOSUNNY   56  24  29 VRB7      30.30F
BOGALUSA*        N/A     56  24  28 N3        30.31F
GALLIANO*      SUNNY     56  26  30 E6        30.31S
NEW ROADS*     FAIR      53  29  40 CALM      30.31S
GONZALES*      FAIR      55  26  33 CALM      30.30F
HAMMOND*       SUNNY     57  21  24 N7        30.30F
HOUMA*         SUNNY     55  25  30 NE6       30.31S
PORT FOURCHON* SUNNY     54  27  35 VRB7      30.31S

$$

LAZ041-044-053-054-071800-
SOUTHWEST LOUISIANA

CITY           SKY/WX    TMP DP  RH WIND       PRES   REMARKS
LAKE CHARLES   SUNNY     54  34  46 SE7       30.31F
LAFAYETTE      SUNNY     55  32  41 CALM      30.31F
PATTERSON      SUNNY     55  28  35 NE8       30.28F
SALT POINT       N/A     57  28  33 VRB5      30.30F
NEW IBERIA     SUNNY     55  30  38 VRB3      30.32F
CHENAULT AIRPK SUNNY     52  36  54 CALM      30.32S

$$

LAZ027-028-071800-
CENTRAL LOUISIANA

CITY           SKY/WX    TMP DP  RH WIND       PRES   REMARKS
FORT POLK      SUNNY     54  30  40 S7        30.29S
ALEXANDRIA INT SUNNY     52  38  58 SW3       30.29F
ALEXANDRIA     SUNNY     57  25  29 SW3       30.28F

$$

LAZ001-002-071800-
NORTHWEST LOUISIANA

CITY           SKY/WX    TMP DP  RH WIND       PRES   REMARKS
SHREVEPORT     MOSUNNY   55  30  38 SW9       30.25F
BARKSDALE AFB  SUNNY     53  34  49 S9        30.25F
DTN SHREVEPORT SUNNY     54  28  36 S14G21    30.26F

$$

LAZ014-016-071800-
NORTHEAST LOUISIANA

CITY           SKY/WX    TMP DP  RH WIND       PRES   REMARKS
MONROE         SUNNY     54  35  48 W7        30.27F
TALLULAH       SUNNY     52  36  54 SE3       30.28F

$$





USA.gov is the U.S. government's official web portal to all federal, state and local government web resources and services.